[[{"header":{"parameterUnit":"m.s-1","parameterCategory":1,"la1":30.2991,"la2":30.254,"lo1":-89.0895,"lo2":-89.0444,"dy":0.0017,"dx":0.0017,"nx":28,"ny":28,"refTime":"2023-08-17T21:00:00:Z","depth":0,"parameterNumber":2,"parameterNumberName":"U-component_of_WINDS"},"data":[0,0,0,0,0,0,0,0,0,0,0,0,0,0,0,0,0,0,0,0,0,0,0,0,0,0,0,0,0,0,0,0,0,0,0,0,0,0,0,0,0,0,0,0,0,0,0,0,0,0,0,0,0,0,0,0,0,0,1.0082,1.0083,0,1.0106,1.0106,1.0107,1.0068,1.0067,1.0065,1.0064,1.0089,1.0091,1.0092,0,0,0,0,0,0,0,0,0,0,0,0,0,1.0003,1.0004,1.0082,1.0083,1.0083,1.0106,1.0106,1.0107,1.0068,1.0067,1.0065,1.0063,1.0088,1.009,1.0093,0,0,0,0,0,0,0,0,0,0,0,0,0,1.0033,1.0005,1.0082,1.0067,1.0065,1.0106,1.0106,1.0107,1.0069,1.0067,1.0065,1.0063,1.0087,1.009,1.0093,1.015,0,0,1.0102,1.0103,0,0,0,0,0,0,0,0,1.0031,1.0036,1.0069,1.0068,1.0066,1.0082,1.0087,1.0121,1.0069,1.0067,1.0064,1.0062,1.0088,1.0091,1.01,1.0151,1.0152,1.0102,1.0104,1.0105,1.0106,0,0,0,0,0,0,0,1.0029,1.0035,1.0092,1.0069,1.0068,1.0058,1.006,1.0094,1.0089,1.0067,1.0065,1.0068,1.0087,1.0097,1.01,1.0153,1.0102,1.0104,1.0106,1.0107,1.025,1.0252,0,0,0,0,0,0,1.0029,1.0033,1.0091,1.0092,1.0044,1.0061,1.0063,1.0079,1.0088,1.0088,1.007,1.0066,1.0093,1.0097,1.0101,1.0166,1.0105,1.0107,1.0109,1.0248,1.025,1.0252,0,0,0,0,0,0,1.0028,1.0035,1.009,1.0062,1.0068,1.0064,1.0082,1.0081,1.009,1.009,1.0089,1.0081,1.0092,1.0097,1.0137,1.0167,1.0109,1.0111,1.0245,1.0248,1.0251,1.0299,0,0,0,0,0,0,1.0026,1.0034,1.0057,1.0063,1.007,1.0127,1.0084,1.0082,1.0095,1.0091,1.01,1.0099,1.009,1.0133,1.014,1.0169,1.0113,1.0243,1.0247,1.025,1.0295,1.0304,1.0311,0,0,0,0,0,1.0023,1.007,1.0058,1.0065,1.0098,1.0129,1.0133,1.0122,1.0098,1.0119,1.0119,1.0099,1.0162,1.0138,1.0145,1.0176,1.0241,1.0245,1.025,1.0291,1.0302,1.0311,0,0,0,0,0,0,1.0068,1.007,1.0057,1.0108,1.0118,1.0122,1.015,1.0133,1.0151,1.0146,1.0132,1.0134,1.0177,1.0181,1.0153,1.023,1.0197,1.0204,1.0226,1.0236,1.0244,1.0242,1.0116,0,0,0,0,0,1.0084,1.0109,1.011,1.0154,1.016,1.0154,1.0167,1.0157,1.0168,1.0172,1.0174,1.0185,1.0207,1.0222,1.0243,1.0295,1.0296,1.032,1.0328,1.0334,1.034,1.0366,1.0376,1.0268,1.0268,1.0268,0,0,1.0117,1.0121,1.0138,1.0163,1.017,1.0196,1.0158,1.0188,1.0206,1.0177,1.0215,1.0217,1.0228,1.0274,1.0295,1.0278,1.037,1.034,1.0346,1.0348,1.0372,1.0382,1.0391,1.0271,1.027,1.027,0,0,1.0189,1.0196,1.0232,1.024,1.025,1.0246,1.0254,1.0261,1.026,1.0298,1.0276,1.0298,1.0337,1.0345,1.0354,1.0427,1.0409,1.0435,1.0476,1.0502,1.051,1.0517,1.0542,1.0551,1.044,1.044,1.044,0,1.0229,1.0267,1.0253,1.0284,1.0295,1.0268,1.0304,1.0312,1.0329,1.0337,1.0318,1.0365,1.0371,1.0418,1.0435,1.0444,1.0453,1.0433,1.051,1.0517,1.0524,1.0547,1.0557,1.0443,1.0443,1.0443,1.0442,0,1.0314,1.034,1.0369,1.0384,1.0399,1.0432,1.0423,1.0439,1.0427,1.0424,1.0462,1.0468,1.0488,1.0498,1.0488,1.0543,1.0532,1.0512,1.0479,1.0537,1.0559,1.0568,1.0447,1.0446,1.0445,1.0445,0,0,1.0416,1.0423,1.0433,1.0439,1.0448,1.0468,1.0499,1.0518,1.0531,1.0544,1.0569,1.0601,1.0582,1.0592,1.0582,1.0605,1.066,1.0581,1.0581,1.0594,1.0719,1.0733,1.0744,1.0648,1.065,1.0651,1.0718,0,1.0487,1.0541,1.0528,1.0581,1.0604,1.0579,1.0606,1.0614,1.0611,1.063,1.0628,1.065,1.0624,1.063,1.0651,1.0649,1.0685,1.0644,1.067,1.0672,1.0667,1.0755,1.0771,1.0833,1.0726,1.0728,1.0729,0,1.0577,1.0591,1.0646,1.0649,1.0658,1.0683,1.0698,1.0717,1.0725,1.0721,1.0732,1.0717,1.0747,1.0714,1.0754,1.0726,1.0736,1.0737,1.0739,1.074,1.0703,1.0758,1.0853,1.0862,1.0742,1.0741,1.074,0,1.0644,1.0677,1.0713,1.0719,1.0724,1.0742,1.0744,1.075,1.0762,1.0775,1.0782,1.0799,1.0808,1.0822,1.0811,1.0788,1.0853,1.0819,1.085,1.085,1.0864,1.0863,1.0961,1.0872,1.0872,1.0872,1.0872,0,1.0724,1.0758,1.0743,1.0765,1.0802,1.0787,1.0824,1.0824,1.0829,1.085,1.083,1.085,1.0835,1.0854,1.0847,1.088,1.0885,1.0882,1.0879,1.0883,1.0883,1.0889,1.0884,1.0875,1.0874,1.0874,1.0873,0,1.0804,1.0796,1.0834,1.0834,1.0835,1.0862,1.0863,1.0883,1.0878,1.0905,1.0911,1.0904,1.0925,1.0916,1.0939,1.0933,1.0975,1.0968,1.0973,1.097,1.1001,1.0997,1.1105,1.1117,1.1022,1.1023,1.1024,0,1.0855,1.088,1.0883,1.0895,1.0899,1.092,1.0931,1.0917,1.093,1.0939,1.0958,1.0977,1.0991,1.1026,1.1022,1.1039,1.1031,1.1067,1.1033,1.1035,1.1029,1.1027,1.1029,1.1074,1.1075,1.1076,1.1076,0,1.0945,1.0939,1.0956,1.0971,1.0984,1.0995,1.1005,1.1016,1.1002,1.1017,1.1038,1.1049,1.1071,1.1089,1.1103,1.1106,1.1089,1.1087,1.1095,1.1099,1.11,1.1098,1.099,1.1085,1.1084,1.1083,1.1083,1.1082,1.1011,1.1032,1.1036,1.1055,1.106,1.1069,1.1087,1.1084,1.1101,1.1117,1.1108,1.1132,1.1137,1.1155,1.1159,1.1177,1.1163,1.1174,1.1177,1.118,1.1183,1.1098,1.118,1.118,1.1179,1.1179,1.1179,0,1.1099,1.11,1.1117,1.113,1.1145,1.1127,1.1136,1.1149,1.1169,1.1176,1.119,1.1213,1.123,1.1228,1.1244,1.1258,1.125,1.1263,1.1261,1.1261,1.1196,1.1187,1.1268,1.1268,1.1268,1.1268,1.1268,1.1268,1.1146,1.1179,1.1173,1.1208,1.1209,1.1231,1.1237,1.1245,1.125,1.1276,1.129,1.1288,1.1291,1.1306,1.1321,1.132,1.1326,1.1341,1.1336,1.1275,1.1266,1.1258,1.1249,1.1342,1.1342,1.14,1.1401,1.1401]},{"header":{"parameterUnit":"m.s-1","parameterCategory":1,"la1":30.2991,"la2":30.254,"lo1":-89.0895,"lo2":-89.0444,"dy":0.0017,"dx":0.0017,"nx":28,"ny":28,"refTime":"2023-08-17T21:00:00:Z","depth":0,"parameterNumber":3,"parameterNumberName":"V-component_of_WINDS"},"data":[0,0,0,0,0,0,0,0,0,0,0,0,0,0,0,0,0,0,0,0,0,0,0,0,0,0,0,0,0,0,0,0,0,0,0,0,0,0,0,0,0,0,0,0,0,0,0,0,0,0,0,0,0,0,0,0,0,0,5.4239,5.4238,0,5.4192,5.4191,5.4191,5.4066,5.4064,5.4061,5.4058,5.4011,5.4013,5.4014,0,0,0,0,0,0,0,0,0,0,0,0,0,5.422,5.4221,5.4239,5.4238,5.4238,5.4192,5.4191,5.4191,5.4067,5.4063,5.406,5.4057,5.4011,5.4013,5.4014,0,0,0,0,0,0,0,0,0,0,0,0,0,5.4206,5.4221,5.4239,5.417,5.4164,5.4192,5.4191,5.4191,5.4067,5.4063,5.4059,5.4056,5.4011,5.4012,5.4014,5.4106,0,0,5.402,5.4021,0,0,0,0,0,0,0,0,5.4207,5.4207,5.4181,5.4175,5.4168,5.4131,5.4167,5.4162,5.4068,5.4104,5.4058,5.4054,5.4055,5.4052,5.4053,5.4104,5.4102,5.402,5.4021,5.4022,5.4023,0,0,0,0,0,0,0,5.4208,5.4209,5.422,5.4181,5.4173,5.4142,5.4135,5.4166,5.4102,5.4101,5.4091,5.4088,5.405,5.4051,5.4051,5.4101,5.402,5.4022,5.4023,5.4024,5.4222,5.4226,0,0,0,0,0,0,5.4219,5.421,5.4222,5.4219,5.4178,5.4145,5.4138,5.4147,5.4102,5.4091,5.4091,5.4082,5.405,5.4049,5.4048,5.415,5.4022,5.4024,5.4025,5.4218,5.4223,5.4227,0,0,0,0,0,0,5.4219,5.4222,5.4224,5.4212,5.421,5.415,5.4161,5.4148,5.4149,5.4094,5.4082,5.4104,5.4047,5.4046,5.4092,5.4147,5.4025,5.4026,5.4213,5.4219,5.4225,5.4356,0,0,0,0,0,0,5.4219,5.4222,5.4257,5.4214,5.4211,5.4268,5.4164,5.415,5.4152,5.414,5.4103,5.4093,5.4043,5.409,5.4094,5.4147,5.4028,5.4208,5.4216,5.4223,5.4347,5.4366,5.4383,0,0,0,0,0,5.4219,5.4297,5.4259,5.4261,5.4253,5.4272,5.427,5.4211,5.4157,5.4191,5.4156,5.4094,5.4141,5.4095,5.4099,5.4154,5.4204,5.4213,5.4222,5.4338,5.4362,5.4382,0,0,0,0,0,0,5.4348,5.429,5.4248,5.4313,5.4298,5.4251,5.4291,5.4239,5.4239,5.4228,5.4154,5.4147,5.4203,5.4183,5.4134,5.4239,5.4162,5.4173,5.4249,5.4271,5.4289,5.4291,5.4029,0,0,0,0,0,5.4385,5.4405,5.4352,5.4416,5.441,5.4353,5.4359,5.4314,5.4296,5.4289,5.4257,5.4242,5.4252,5.4261,5.4268,5.4344,5.4333,5.4383,5.4401,5.4416,5.4426,5.4461,5.4482,5.4258,5.4258,5.4258,0,0,5.4459,5.443,5.4447,5.4441,5.4424,5.4446,5.4348,5.4376,5.4391,5.4293,5.4334,5.431,5.4288,5.4349,5.4374,5.4334,5.4485,5.4428,5.4441,5.4442,5.4473,5.4494,5.4513,5.4264,5.4263,5.4262,0,0,5.4606,5.4587,5.4636,5.4621,5.4596,5.4557,5.4569,5.4529,5.4509,5.4549,5.4475,5.4492,5.4513,5.4499,5.4495,5.4635,5.4578,5.464,5.4734,5.4769,5.4787,5.4802,5.4849,5.4867,5.465,5.465,5.465,0,5.4702,5.4732,5.4668,5.4699,5.4698,5.461,5.4658,5.4647,5.4626,5.4627,5.4583,5.4605,5.4584,5.4639,5.4673,5.4674,5.4683,5.4643,5.4789,5.4804,5.4817,5.4861,5.488,5.4658,5.4657,5.4656,5.4655,0,5.485,5.4872,5.4914,5.4895,5.4898,5.4939,5.488,5.4891,5.4847,5.4812,5.4852,5.4824,5.4823,5.4833,5.4791,5.4881,5.4857,5.4803,5.4723,5.4847,5.4887,5.4904,5.4668,5.4666,5.4663,5.4662,0,0,5.5076,5.502,5.5036,5.5025,5.4991,5.5007,5.5043,5.504,5.505,5.5039,5.5066,5.5085,5.5033,5.5029,5.4984,5.5016,5.5125,5.4957,5.4955,5.4986,5.522,5.5259,5.528,5.5088,5.5091,5.5093,5.5221,0,5.5212,5.5269,5.5211,5.5279,5.5297,5.5214,5.5244,5.5227,5.5196,5.5206,5.5171,5.5185,5.5118,5.5114,5.5142,5.5106,5.517,5.5096,5.511,5.5111,5.5115,5.5301,5.5343,5.5465,5.5236,5.5239,5.5241,0,5.5378,5.5373,5.5443,5.5402,5.5407,5.5436,5.5428,5.544,5.5417,5.5392,5.5387,5.5332,5.5363,5.5288,5.5328,5.5279,5.5281,5.5265,5.5268,5.5265,5.5182,5.5301,5.5502,5.552,5.5266,5.5264,5.5262,0,5.5532,5.5543,5.5585,5.5579,5.5534,5.5555,5.5537,5.5511,5.5512,5.5506,5.5506,5.5504,5.5502,5.5501,5.5447,5.5398,5.5494,5.5415,5.5472,5.5473,5.5494,5.5493,5.5696,5.5501,5.55,5.55,5.55,0,5.5689,5.5734,5.5654,5.568,5.5727,5.5661,5.571,5.5683,5.566,5.5679,5.5608,5.5627,5.5555,5.5566,5.5524,5.5562,5.5563,5.5542,5.553,5.5547,5.5549,5.5546,5.5535,5.5505,5.5504,5.5503,5.5502,0,5.5868,5.5817,5.5856,5.581,5.5799,5.5836,5.5795,5.5817,5.5781,5.5805,5.5807,5.575,5.5759,5.5705,5.5705,5.5677,5.5735,5.571,5.5742,5.5733,5.5793,5.5787,5.5999,5.6022,5.5815,5.5817,5.5818,0,5.597,5.6002,5.5958,5.5965,5.595,5.5963,5.5964,5.59,5.5904,5.5879,5.5904,5.5907,5.5905,5.5924,5.5883,5.5882,5.5854,5.5928,5.5853,5.5869,5.5852,5.5849,5.5851,5.5943,5.5946,5.5948,5.595,0,5.6155,5.6127,5.6131,5.6126,5.6128,5.6121,5.6109,5.6119,5.6049,5.6057,5.6065,5.6064,5.6063,5.6066,5.6057,5.6038,5.5982,5.5974,5.5987,5.6003,5.602,5.6009,5.5782,5.5969,5.5967,5.5966,5.5965,5.5964,5.6296,5.632,5.6292,5.6298,5.6282,5.6273,5.6289,5.6255,5.626,5.6254,5.6216,5.6231,5.6205,5.6187,5.6173,5.6183,5.6147,5.6166,5.617,5.6176,5.6185,5.602,5.6181,5.618,5.618,5.6179,5.6179,0,5.6475,5.6453,5.6459,5.6444,5.6448,5.6396,5.6379,5.6386,5.6399,5.6381,5.6381,5.6389,5.6391,5.635,5.6347,5.6363,5.6337,5.6364,5.6361,5.6357,5.6218,5.6206,5.6385,5.6385,5.6385,5.6385,5.6384,5.6384,5.6569,5.6605,5.6575,5.6602,5.6579,5.6592,5.6587,5.6577,5.6561,5.6573,5.6575,5.6548,5.6519,5.6513,5.6513,5.6501,5.6502,5.6537,5.6516,5.6387,5.6367,5.6348,5.6336,5.6538,5.6539,5.6653,5.6654,5.6655]}]]